Appleton, WI

2:28 PM CDT on October 22, 2017 (GMT -0500)
Outagamie County Regional

Weather History for KATW - April, 2014

Change the Weather History Date:

Thursday, April 24, 2014

  Actual Average Record
Temperature  
Mean Temperature 42 °F -  
Max Temperature 44 °F 59 °F 83 °F (1990)
Min Temperature 39 °F 38 °F 25 °F (1980)
Degree Days  
Heating Degree Days 24    
Moisture  
Dew Point 27 °F    
Average Humidity 62    
Maximum Humidity 100    
Minimum Humidity 29    
Precipitation  
Precipitation 0.01 in - - ()
Sea Level Pressure  
Sea Level Pressure 29.96 in    
Wind  
Wind Speed 7 mph (ESE)    
Max Wind Speed 17 mph    
Max Gust Speed 24 mph    
Visibility 9 miles    
Events Rain    
Averages and records for this station are not official NWS values.
T = Trace of Precipitation, MM = Missing Value Source: NWS Daily Summary

Daily Weather History Graph

Daily Weather History Graph

Search for Another Location

Airport or City:

Trip Planner

Search our weather history database for the weather conditions in past years. The results will help you decide how hot, cold, wet, or windy it might be!

Date:

Astronomy

Apr. 24, 2014 Rise Set
Actual Time 5:55 AM CDT 7:49 PM CDT
Civil Twilight 5:24 AM CDT 8:20 PM CDT
Nautical Twilight 4:46 AM CDT 8:58 PM CDT
Astronomical Twilight 4:05 AM CDT 9:40 PM CDT
Moon 3:18 AM CDT (4/24) 2:54 PM CDT (4/24)
Length of Visible Light 14h 56m
Length of Day
13h 53m
Waning Crescent, 24% of the Moon is Illuminated
Apr 24
Waning Crescent
Apr 29
New
May 6
First Quarter
May 14
Full
May 21
Last Quarter

Hourly Weather History & Observations

Time (CDT) Temp. Windchill Dew Point Humidity Pressure Visibility Wind Dir Wind Speed Gust Speed Precip Events Conditions
12:15 AM 41.0 °F 37.1 °F 10.4 °F 29% 30.08 in 10.0 mi East 5.8 mph - N/A   Overcast
12:35 AM 41.0 °F 37.1 °F 12.2 °F 31% 30.09 in 10.0 mi ESE 5.8 mph - N/A   Overcast
12:55 AM 41.0 °F 37.1 °F 12.2 °F 31% 30.09 in 10.0 mi ESE 5.8 mph - N/A   Overcast
1:15 AM 41.0 °F 38.0 °F 12.2 °F 31% 30.09 in 10.0 mi East 4.6 mph - N/A   Overcast
1:35 AM 41.0 °F 35.2 °F 14.0 °F 33% 30.08 in 10.0 mi East 9.2 mph - N/A   Overcast
1:55 AM 41.0 °F 36.4 °F 15.8 °F 36% 30.09 in 10.0 mi SE 6.9 mph - N/A   Overcast
2:15 AM 39.2 °F - 19.4 °F 45% 30.09 in 10.0 mi Calm Calm - N/A   Overcast
2:35 AM 41.0 °F 38.0 °F 19.4 °F 42% 30.09 in 10.0 mi SE 4.6 mph - N/A   Overcast
2:55 AM 41.0 °F 39.0 °F 17.6 °F 39% 30.09 in 10.0 mi ESE 3.5 mph - N/A   Overcast
3:15 AM 39.2 °F 37.0 °F 21.2 °F 49% 30.09 in 10.0 mi South 3.5 mph - N/A   Overcast
3:35 AM 39.2 °F 37.0 °F 23.0 °F 52% 30.10 in 10.0 mi South 3.5 mph - N/A   Overcast
3:55 AM 39.2 °F 35.0 °F 23.0 °F 52% 30.09 in 10.0 mi SSE 5.8 mph - N/A   Overcast
4:15 AM 39.2 °F 37.0 °F 23.0 °F 52% 30.08 in 10.0 mi SE 3.5 mph - N/A   Overcast
4:35 AM 39.2 °F 35.0 °F 21.2 °F 49% 30.07 in 10.0 mi ESE 5.8 mph - N/A   Overcast
4:55 AM 41.0 °F 38.0 °F 21.2 °F 45% 30.05 in 10.0 mi East 4.6 mph - N/A   Overcast
5:15 AM 39.2 °F 34.2 °F 21.2 °F 49% 30.05 in 10.0 mi SE 6.9 mph - N/A   Overcast
5:45 AM 39.2 °F 34.2 °F 23.0 °F 52% 30.05 in 10.0 mi SE 6.9 mph - N/A   Overcast
6:45 AM 39.2 °F 35.0 °F 24.8 °F 56% 30.03 in 10.0 mi ESE 5.8 mph - N/A Rain Light Rain
7:45 AM 39.2 °F 35.0 °F 30.2 °F 70% 30.02 in 5.0 mi SE 5.8 mph - N/A Rain Light Rain
8:45 AM 39.2 °F 33.6 °F 35.6 °F 87% 30.02 in 5.0 mi ESE 8.1 mph - N/A Rain Light Rain
9:45 AM 39.2 °F 33.0 °F 37.4 °F 93% 30.01 in 5.0 mi ESE 9.2 mph - N/A Rain Light Rain
10:45 AM 39.2 °F 32.5 °F 39.2 °F 100% 30.01 in 5.0 mi ESE 10.4 mph - N/A Rain Light Rain
12:45 PM 42.8 °F 37.5 °F 37.4 °F 81% 29.93 in 10.0 mi East 9.2 mph 17.3 mph N/A   Overcast
1:45 PM 42.8 °F 36.6 °F 35.6 °F 76% 29.91 in 10.0 mi East 11.5 mph 17.3 mph N/A   Overcast
2:45 PM 42.8 °F 35.8 °F 35.6 °F 76% 29.87 in 5.0 mi ESE 13.8 mph 20.7 mph N/A   Light Drizzle
3:45 PM 41.0 °F 32.8 °F 37.4 °F 87% 29.84 in 5.0 mi ESE 16.1 mph 24.2 mph N/A Rain Light Rain
4:45 PM 41.0 °F 32.8 °F 39.2 °F 93% 29.81 in 5.0 mi ESE 16.1 mph - N/A Rain Light Rain
5:45 PM 41.0 °F 32.5 °F 39.2 °F 93% 29.76 in 7.0 mi ESE 17.3 mph - N/A Rain Light Rain
6:45 PM 44.6 °F 40.2 °F 33.8 °F 66% 29.76 in 10.0 mi East 8.1 mph - N/A   Light Drizzle
7:45 PM 42.8 °F 39.3 °F 35.6 °F 76% 29.76 in 7.0 mi East 5.8 mph - N/A Rain Light Rain
8:45 PM 42.8 °F 39.3 °F 35.6 °F 76% 29.77 in 7.0 mi East 5.8 mph - N/A Rain Light Rain
9:45 PM 41.0 °F 35.2 °F 37.4 °F 87% 29.74 in 7.0 mi East 9.2 mph - N/A Rain Light Rain
10:45 PM 42.8 °F 38.0 °F 35.6 °F 76% 29.73 in 7.0 mi ESE 8.1 mph - N/A Rain Light Rain
11:15 PM 41.0 °F 34.7 °F 35.6 °F 81% 29.72 in 10.0 mi SE 10.4 mph 17.3 mph N/A Rain Rain
11:35 PM 41.0 °F 33.9 °F 35.6 °F 81% 29.70 in 10.0 mi ESE 12.7 mph 17.3 mph 0.01 in Rain Light Rain